User: anonymous
Location: Vancouver
(49.2500°N, 123.1330°W)
Time: 14:37:51
(UTC-07:00)
Language:

CZ-2C R/B - Orbit

View from above orbital plane
View from above orbital plane
View from above satellite
View from above satellite

Ground track
Ground track

The orbit data is extracted from the following two-line orbital elements,

1 28480U 04046B   14211.46466322  .00000044  00000-0  31612-4 0  3942
2 28480 098.0953 004.1244 0143883 094.0232 303.4717 14.25316409504256
Epoch (UTC): 30 July 2014 11:09:06
Eccentricity: 0.0143883
inclination: 98.0953°
perigee height: 704 km
apogee height: 911 km
right ascension of ascending node: 4.1244°
argument of perigee: 94.0232°
revolutions per day: 14.25316409
mean anomaly at epoch: 303.4717°
orbit number at epoch: 50425

The dashed part of the orbit path shows where the satellite is in the earth's shadow,  

DLR